Groton, CT

8:47 PM EDT on May 23, 2018 (GMT -0400)
Groton-New London

Weather History for KGON - March, 2014

Change the Weather History Date:

Monday, March 17, 2014

  Actual Average Record
Temperature  
Mean Temperature 27 °F -  
Max Temperature 34 °F 48 °F 61 °F (2003)
Min Temperature 21 °F 29 °F 12 °F (1967)
Degree Days  
Heating Degree Days 38    
Moisture  
Dew Point 2 °F    
Average Humidity 36    
Maximum Humidity 63    
Minimum Humidity 21    
Precipitation  
Precipitation 0.00 in - - ()
Sea Level Pressure  
Sea Level Pressure 30.10 in    
Wind  
Wind Speed 10 mph (NNE)    
Max Wind Speed 17 mph    
Max Gust Speed 21 mph    
Visibility 10 miles    
Events      
Averages and records for this station are not official NWS values.
T = Trace of Precipitation, MM = Missing Value Source: NWS Daily Summary

Daily Weather History Graph

Daily Weather History Graph

Search for Another Location

Airport or City:

Astronomy

Mar. 17, 2014 Rise Set
Actual Time 6:56 AM EDT 6:56 PM EDT
Civil Twilight 6:29 AM EDT 7:24 PM EDT
Nautical Twilight 5:56 AM EDT 7:56 PM EDT
Astronomical Twilight 5:24 AM EDT 8:29 PM EDT
Moon 8:12 PM EDT (3/17) 7:09 AM EDT (3/17)
Length of Visible Light 12h 55m
Length of Day
12h 00m
Full, 99% of the Moon is Illuminated
Mar 17
Full
Mar 23
Last Quarter
Mar 30
New
Apr 7
First Quarter
Apr 15
Full

Hourly Weather History & Observations

Time (EDT) Temp. Windchill Dew Point Humidity Pressure Visibility Wind Dir Wind Speed Gust Speed Precip Events Conditions
12:56 AM 27.0 °F 18.0 °F 3.0 °F 36% 30.15 in 10.0 mi North 9.2 mph - N/A   Overcast
1:56 AM 27.0 °F 16.7 °F 3.0 °F 36% 30.14 in 10.0 mi North 11.5 mph 19.6 mph N/A   Overcast
2:56 AM 26.1 °F 15.0 °F 3.9 °F 39% 30.11 in 10.0 mi North 12.7 mph - N/A   Overcast
3:56 AM 25.0 °F 12.6 °F 3.9 °F 41% 30.09 in 10.0 mi North 15.0 mph - N/A   Overcast
4:56 AM 25.0 °F 15.5 °F 5.0 °F 43% 30.09 in 10.0 mi North 9.2 mph - N/A   Mostly Cloudy
5:56 AM 25.0 °F 15.5 °F 3.9 °F 41% 30.10 in 10.0 mi NE 9.2 mph - N/A   Mostly Cloudy
6:56 AM 24.1 °F 12.5 °F 3.0 °F 40% 30.09 in 10.0 mi NE 12.7 mph - N/A   Overcast
7:56 AM 21.9 °F 8.7 °F -0.0 °F 38% 30.13 in 10.0 mi NE 15.0 mph - N/A   Overcast
8:56 AM 21.0 °F 6.6 °F -4.0 °F 33% 30.13 in 10.0 mi NNE 17.3 mph - N/A   Overcast
9:56 AM 21.9 °F 9.8 °F -5.1 °F 30% 30.13 in 10.0 mi NNE 12.7 mph - N/A   Overcast
10:56 AM 25.0 °F 12.2 °F -2.9 °F 30% 30.09 in 10.0 mi North 16.1 mph 20.7 mph N/A   Overcast
11:56 AM 27.0 °F 18.0 °F -2.0 °F 29% 30.09 in 10.0 mi North 9.2 mph - N/A   Scattered Clouds
12:56 PM 28.9 °F 21.9 °F -2.0 °F 26% 30.09 in 10.0 mi NNE 6.9 mph - N/A   Overcast
1:56 PM 30.9 °F 22.8 °F -2.0 °F 24% 30.05 in 10.0 mi North 9.2 mph - N/A   Partly Cloudy
2:56 PM 32.0 °F 24.2 °F -2.0 °F 23% 30.05 in 10.0 mi NNE 9.2 mph - N/A   Clear
3:56 PM 32.0 °F 24.2 °F -0.9 °F 24% 30.05 in 10.0 mi North 9.2 mph - N/A   Mostly Cloudy
4:56 PM 33.1 °F 28.7 °F -2.9 °F 21% 30.05 in 10.0 mi NE 4.6 mph - N/A   Clear
5:56 PM 33.1 °F - -2.9 °F 21% 30.06 in 10.0 mi Calm Calm - N/A   Clear
6:56 PM 30.0 °F 26.5 °F 8.1 °F 40% 30.08 in 10.0 mi South 3.5 mph - N/A   Clear
7:56 PM 28.9 °F - 9.0 °F 43% 30.09 in 10.0 mi Calm Calm - N/A   Overcast
8:56 PM 30.0 °F - 10.9 °F 45% 30.11 in 10.0 mi Calm Calm - N/A   Overcast
9:56 PM 26.1 °F 19.4 °F 12.0 °F 55% 30.12 in 10.0 mi NE 5.8 mph - N/A   Mostly Cloudy
10:56 PM 24.1 °F 19.7 °F 9.0 °F 53% 30.15 in 10.0 mi North 3.5 mph - N/A   Clear
11:56 PM 21.0 °F - 10.0 °F 63% 30.15 in 10.0 mi Calm Calm - N/A   Clear